#timestamp,LO_Frequency,Hit,StdDev 
1570046415.6,286047002.2,N
1570046435.4,286047003.2,N
1570046455.3,286047005.6,N
1570046475.1,286047003.0,N
1570046495.9,286047002.0,N
1570046515.7,286047001.5,N
1570046535.5,286047001.6,N
1570046555.4,286047001.5,N
1570046575.2,286047002.5,N
1570046595.0,286047001.8,N
1570046595.9,286047001.8,N
1570046615.8,286047005.5,Y
1570046635.6,286047003.9,P
1570046655.5,286047001.5,N
1570046675.3,286047003.6,P
1570046695.1,286047006.0,Y
1570046715.9,286047002.7,P
1570046735.7,286047002.6,P
1570046755.6,286047000.2,N
1570046775.4,286047000.3,N
1570046795.2,286047001.0,N
1570046815.1,286046998.2,N
1570046816.0,286046998.2,N
1570046835.8,286046998.7,N
1570046855.6,286046999.3,N
1570046875.5,286046998.7,N
1570046895.3,286046998.8,N
1570046915.2,286046998.9,N
1570046935.9,286046998.5,N
1570046955.7,286047000.4,N
1570046975.6,286046998.9,N
1570046995.4,286047000.8,N
1570047015.2,286047001.0,N
1570047035.1,286046999.0,N
1570047036.0,286046999.0,N
1570047055.8,286046999.0,N
1570047075.7,286046999.2,N
1570047095.5,286046997.1,N
1570047115.3,286046999.0,N
1570047135.2,286046998.2,N
1570047155.0,286046998.8,N
1570047155.9,286046998.8,N
1570047175.8,286046998.6,N
1570047195.6,286046999.0,N
1570047215.4,286046998.5,N
1570047235.3,286046998.6,N
1570047255.1,286047000.7,N
1570047275.8,286046999.3,N
1570047295.7,286046999.0,N
1570047315.5,286046999.4,N
1570047335.4,286046998.9,N
1570047355.2,286046998.8,N
1570047375.0,286046997.0,Y
1570047375.9,286046997.0,P
1570047395.8,286046999.0,N
1570047415.6,286046997.4,N
1570047435.4,286046999.5,N
1570047455.3,286046998.7,N
1570047475.1,286046999.4,N
1570047495.9,286046996.7,Y
1570047515.7,286046998.7,P
1570047535.5,286046998.5,P
1570047555.4,286046998.6,P
1570047575.2,286046998.8,Y
1570047595.1,286047000.5,P
1570047596.0,286047000.5,N
1570047615.8,286047000.7,N
1570047635.6,286047001.0,N
1570047655.5,286047001.0,N
1570047675.3,286047000.4,N
1570047695.1,286047000.5,N
1570047715.9,286047002.1,N
1570047735.7,286047002.5,N
1570047755.6,286047002.2,N
1570047775.4,286046999.9,N
1570047795.2,286047001.0,N
1570047815.1,286047001.2,N
1570047816.0,286047001.2,N
1570047835.8,286047000.7,N
1570047855.7,286046998.1,N
1570047875.5,286047000.6,N
1570047895.3,286046998.3,N
1570047915.2,286047001.1,N
1570047935.9,286047000.6,N
1570047955.7,286047002.6,N
1570047975.6,286047002.7,N
1570047995.4,286047002.7,N
1570048015.2,286047000.3,N
1570048065.1,286047001.3,E
1570048075.0,286047002.5,N
1570048075.9,286047002.5,P
1570048095.8,286047000.3,P
1570048115.6,286047000.5,N
1570048135.5,286047000.5,N
1570048155.3,286047000.4,N
1570048175.1,286047000.6,N
1570048195.9,286047000.9,N
1570048215.7,286046998.5,N
1570048235.5,286046996.8,N
1570048255.4,286046995.0,Y
1570048275.2,286046997.3,P
1570048295.1,286046996.5,N
1570048296.0,286046996.5,N
1570048315.8,286046996.7,N
1570048335.6,286046999.4,N
1570048355.5,286046997.4,N
1570048375.3,286046996.6,N
1570048395.1,286046998.8,N
1570048415.9,286046998.6,N
1570048435.7,286047000.7,N
1570048455.6,286047001.0,N
1570048475.4,286046998.7,N
1570048495.2,286046999.4,N
1570048515.1,286046996.7,N
1570048516.0,286046996.7,N
1570048535.8,286046997.8,N
1570048555.6,286046997.4,N
1570048575.5,286046999.6,N
1570048595.3,286046998.2,N
1570048615.2,286046998.8,N
1570048635.9,286046998.3,N
1570048655.7,286046999.0,N
1570048675.6,286046997.0,N
1570048695.4,286046999.6,N
1570048715.2,286046999.2,N
1570048735.1,286046999.6,N
1570048736.0,286046999.6,N
1570048755.8,286046999.5,N
1570048775.7,286046996.5,N
1570048795.5,286046996.6,N
1570048815.3,286046999.1,N
1570048835.2,286046999.5,N
1570048855.0,286046997.4,N
1570048855.9,286046997.4,N
1570048875.7,286046996.6,N
1570048895.6,286046999.1,N
1570048915.4,286046999.0,N
1570048935.3,286046999.8,N
1570048955.1,286047001.6,N
1570048956.0,286047001.6,N
1570048975.8,286047002.4,N
1570048995.7,286047001.3,N
1570049015.5,286047004.4,N
1570049035.3,286047001.6,N
1570049055.2,286047002.5,N
1570049075.0,286046999.7,N
1570049075.9,286046999.7,N
1570049095.8,286047000.1,N
1570049115.6,286047002.2,N
1570049135.4,286047002.5,N
1570049155.3,286047001.8,N
1570049175.1,286047001.3,N
1570049195.9,286047001.3,N
1570049215.7,286047005.6,N
1570049235.5,286047005.7,N
1570049255.4,286047004.2,N
1570049275.2,286047001.8,N
1570049295.0,286047001.9,N
1570049295.9,286047001.9,N
1570049315.8,286047001.8,N
1570049335.6,286047003.2,N
1570049355.5,286047005.4,N
1570049375.3,286047004.7,N
1570049395.1,286047004.0,N
1570049415.9,286047004.2,N
1570049435.7,286047006.0,Y
1570049455.5,286047001.9,P
1570049475.4,286047003.8,P
1570049495.2,286047003.3,P
1570049515.1,286047003.3,Y
1570049516.0,286047003.3,P
1570049535.8,286047000.3,N
1570049555.6,286046999.9,N
1570049575.5,286047001.1,N
1570049595.3,286046998.1,N
1570049615.2,286046996.7,N
1570049635.9,286046996.5,N
1570049655.7,286046999.2,N
1570049675.6,286046996.8,N
1570049695.4,286046999.5,N
1570049715.2,286046999.4,N
1570049735.1,286046999.4,N
1570049736.0,286046999.4,N
1570049755.8,286046998.4,N
1570049775.7,286046998.1,N
1570049795.5,286047000.7,N
1570049815.3,286047001.1,N
1570049835.2,286047000.8,N
1570049855.0,286046999.6,N
1570049855.9,286046999.6,N
1570049875.8,286046997.0,N
1570049895.6,286046999.3,N
1570049915.4,286046998.7,N
1570049935.3,286046998.4,N
1570049955.1,286046999.6,N
1570049975.8,286046997.2,N
1570049995.7,286046999.2,N
